Location: Unspecified
(0.0000°N, 0.0000°E)
Time: 03:17:33
(UTC+00:00)

Vanguard 1 - Pass Details

Date: 23 November 2019
Orbit: 650 x 3833 km, 34.2° (Epoch: 03 July)

Event Time Altitude Azimuth Distance (km) Brightness Sun altitude
Rises 08:56:56 0° 271° (W) 7,247 14.1 43.9°
Reaches altitude 10° 09:05:15 10° 289° (WNW) 5,554 13.6 45.7°
Maximum altitude 09:13:35 16° 322° (NW) 4,199 13.1 47.5°
Drops below altitude 10° 09:19:50 10° 357° (N) 3,970 13.0 48.8°
Sets 09:24:11 0° 19° (NNE) 4,418 13.3 49.7°
